EHI
2 2 1 0 0 0 0 0 0 0 0 0 0 0 0 0 0 0 0 0 0 0 0 0 0 0 0 0 0 0 0 0 0 0 0 0 0 0
1 1 0 0 0 0 0 0 0 0 0 0 0 0 0 0 0 0 0 0 0 0 0 0 0 0 0 0 0 0 0 0 0 0 0 0 0 0
0 0 0 0 0 0 0 0 0 0 0 0 0 0 0 0 0 0 0 0 0 0 0 0 0 0 0 0 0 0 0 0 0 0 0 0 0 0
0 0 0 0 0 0 0 0 0 0 0 0 0 0 0 0 0 0 0 0 0 0 0 0 0 0 0 0 0 0 0 0 0 0 0 0 0 0
0 0 0 0 0 0 0 0 0 0 0 0 0 0 0 0 0 0 0 0 0 0 0 0 0 0 0 0 0 0 0 0 0 0 0 0 0 0
0 0 0 0 0 0 0 0 0 0 0 0 0 0 0 0 0 0 0 0 0 0 0 0 0 0 0 0 0 0 0 0 0 0 0 0 0 0
0 0 0 0 0 0 0 0 0 0 0 0 0 0 0 0 0 0 0 0 0 0 0 0 0 0 0 0 0 0 0 0 0 0 0 0 0 0
0 0 0 0 0 0 0 0 0 0 0 0 0 0 0 0 0 0 0 0 0 0 0 0 0 0 0 0 0 0 0 0 0 0 0 0 0 0
0 0 0 0 0 0 0 0 0 0 0 0 0 0 0 0 0 0 0 0 0 0 0 0 0 0 0 0 0 0 0 0 0 0 0 0 0 0
0 0 0 0 0 0 0 0 0 0 0 0 0 0 0 0 0 0 0 0 0 0 0 0 0 0 0 0 0 0 0 0 0 0 0 0 0 0
0 0 0 0 0 0 0 0 0 0 0 0 0 0 0 0 0 0 0 0 0 0 0 0 0 0 0 0 0 0 0 0 0 0 0 0 0 0
0 0 0 0 0 0 0 0 0 0 0 0 0 0 0 0 0 0 0 0 0 0 0 0 0 0 0 0 0 0 0 0 0 0 0 0 0 0
0 0 0 0 0 0 0 0 0 0 0 0 0 0 0 0 0 0 0 0 0 0 0 0 0 0 0 0 0 0 0 0 0 0 0 0 0 0
0 0 0 0 0 0 0 0 0 0 0 0 0 0 0 0 0 0 0 0 0 0 0 0 0 0 0 0 0 0 0 0 0 0 0 0 0 0
0 0 0 0 0 0 0 0 0 0 0 0 0 0 0 0 0 0 0 0 0 0 0 0 0 0 0 0 0 0 0 0 0 0 0 0 0 0
0 0 0 0 0 0 0 0 0 0 0 0 0 0 0 0 0 0 0 0 0 0 0 0 0 0 0 0 0 0 0 0 0 0 0 0 0 0
0 0 0 0 0 0 0 0 0 0 0 0 0 0 0 0 0 0 0 0 0 0 0 0 0 0 0 0 0 0 0 0 0 0 0 0 0 0
0 0 0 0 0 0 0 0 0 0 0 0 0 0 0 0 0 0 0 0 0 0 0 0 0 0 0 0 0 0 0 0 0 0 0 0 0 0
0 0 0 0 0 0 0 0 0 0 0 0 0 0 0 0 0 0 0 0 0 0 0 0 0 0 0 0 0 0 0 0 0 0 0 0 0 0
0 0 0 0 0 0 0 0 0 0 0 0 0 0 0 0 0 0 0 0 0 0 0 0 0 0 0 0 0 0 0 0 0 0 0 0 0 0
0 0 0 0 0 0 0 0 0 0 0 0 0 0 0 0 0 0 0 0 0 0 0 0 0 0 0 0 0 0 0 0 0 0 0 0 0 0
0 0 0 0 0 0 0 0 0 0 0 0 0 0 0 0 0 0 0 0 0 0 0 0 0 0 0 0 0 0 0 0 0 0 0 0 0 0
0 0 0 0 0 0 0 0 0 0 0 0 0 0 0 0 0 0 0 0 0 0 0 0 0 0 0 0 0 0 0 0 0 0 0 0 0 0
Wind_Speed
6 7 5 4 4 4 4 4 5 4 2 1 2 3 3 3 5 4 5 7 8 8 7 7 8 8 8 8 8 7 5 4 3 1 2 4 6 8
3 4 4 3 3 4 4 4 3 4 3 2 2 2 3 4 6 6 6 9 10 9 8 8 8 8 8 8 8 7 6 5 4 3 2 3 4 7
2 3 3 3 3 3 3 3 3 4 6 3 2 3 4 5 5 6 6 6 6 10 9 9 9 9 8 8 8 7 6 5 4 4 4 4 5 7
3 4 4 4 4 3 3 4 4 5 7 7 3 4 5 4 5 6 6 6 6 9 9 9 9 8 8 8 8 7 7 6 5 5 5 6 7 9
4 5 5 6 6 5 6 6 6 7 6 7 4 3 4 4 4 5 5 5 5 7 8 8 9 9 8 8 8 7 7 6 5 5 6 7 8 10
5 5 5 6 7 7 7 8 8 9 8 7 5 4 4 3 4 4 4 4 5 6 6 6 7 8 8 8 8 7 7 6 6 5 6 7 8 10
6 7 7 9 10 8 8 8 9 8 7 7 6 5 4 4 3 2 3 2 4 5 4 4 4 4 5 6 7 8 7 6 6 7 7 8 9 11
7 7 8 10 14 15 14 12 10 9 8 6 5 5 3 2 2 3 3 3 3 5 4 4 3 4 4 4 6 6 7 7 7 7 8 9 10 11
6 6 7 8 10 11 13 13 11 10 9 7 7 4 3 1 2 3 4 4 3 4 3 3 4 3 3 4 6 7 7 8 8 8 9 10 11 12
6 6 7 7 7 10 10 10 8 7 6 5 6 4 2 2 2 2 2 2 2 3 4 3 4 3 3 3 6 8 8 9 9 10 10 11 12 13
5 5 6 7 9 12 11 10 9 7 9 10 10 9 8 6 3 3 3 4 4 3 4 3 3 3 3 3 4 8 9 9 10 11 11 12 12 12
5 5 6 8 9 10 10 10 9 6 6 8 8 8 8 9 9 5 4 4 3 3 5 4 3 3 3 3 3 6 7 8 10 10 11 12 12 8
6 4 4 10 10 10 8 7 9 7 7 8 7 7 6 6 6 6 5 4 4 3 4 3 3 3 3 3 4 5 6 7 7 8 9 12 12 9
6 5 5 10 11 10 8 11 12 9 6 6 6 5 5 5 4 5 5 5 4 4 3 3 2 3 3 4 4 6 5 6 8 8 8 10 9 10
6 9 10 12 11 9 11 12 9 6 6 6 5 3 3 2 2 3 4 4 5 6 6 5 4 3 3 4 4 5 5 6 8 8 7 8 9 8
8 10 11 11 9 9 8 6 5 5 5 5 4 3 2 3 3 3 3 3 4 5 6 7 5 4 4 4 4 5 5 6 7 8 6 6 7 8
10 6 5 5 5 5 4 5 4 5 5 3 4 4 4 3 3 3 3 3 4 3 5 5 4 3 3 4 5 6 6 5 6 7 6 6 7 8
11 7 6 6 6 6 6 4 4 4 4 4 4 4 4 4 3 3 3 3 3 3 3 4 4 3 3 3 4 6 6 5 6 7 6 6 7 7
8 8 7 7 6 6 6 5 5 4 4 4 4 4 4 3 3 3 2 2 2 2 2 3 3 3 5 5 4 4 5 5 5 6 5 5 5 6
7 9 8 7 7 6 6 5 5 5 4 4 4 4 4 3 3 3 2 2 2 1 2 2 3 3 3 3 3 4 5 5 5 6 6 4 3 4
8 9 8 8 7 7 7 6 6 6 6 5 4 4 4 4 3 3 3 3 2 1 1 2 3 3 2 1 1 3 4 4 4 4 5 5 5 6
10 9 8 8 7 7 7 7 6 6 7 6 5 5 5 4 4 5 4 3 2 2 1 1 2 1 1 2 3 3 4 5 4 3 5 5 4 6
10 9 8 8 7 7 7 8 9 7 7 7 6 6 5 5 4 4 4 4 3 3 2 0 1 1 1 1 2 3 4 5 4 3 4 7 6 4
Wind_Direction
228 218 213 205 195 194 184 173 165 162 146 74 51 18 31 59 44 58 61 60 65 68 67 66 67 69 72 75 78 81 83 83 82 84 246 250 253 253
214 202 197 189 185 184 180 173 164 146 131 98 65 29 33 62 51 60 64 62 60 65 69 71 71 73 74 75 76 77 77 75 67 48 12 325 297 283
183 173 167 156 159 159 152 151 143 128 123 103 54 36 50 57 50 54 59 59 56 56 66 70 72 73 72 71 70 67 63 57 47 28 359 329 310 296
132 128 128 127 117 115 121 124 121 117 124 118 70 44 49 49 52 53 49 53 53 52 59 65 68 72 73 69 66 60 52 41 28 10 350 332 318 305
101 109 110 111 104 100 101 103 102 100 99 109 92 55 53 43 49 49 47 38 44 47 52 58 60 65 68 66 61 54 44 32 18 1 343 329 317 308
83 88 92 103 108 107 103 103 105 101 99 101 94 72 56 37 52 51 50 36 33 28 34 42 51 60 61 59 53 46 36 24 10 355 339 325 313 304
81 78 84 98 103 106 112 110 109 106 104 101 94 83 62 51 48 32 58 46 46 24 17 28 32 40 43 44 44 37 25 12 359 348 336 327 318 309
88 84 89 90 92 92 96 99 108 116 115 106 99 94 80 62 49 49 51 50 41 11 8 15 20 30 29 33 28 25 15 3 352 342 332 325 319 313
91 94 96 94 96 99 93 88 87 96 110 119 113 112 106 93 89 74 65 68 56 354 353 15 6 14 17 24 21 20 11 359 348 337 329 325 323 320
84 94 105 105 110 111 105 94 85 78 90 98 109 108 102 112 100 93 93 88 65 33 13 19 352 346 346 4 15 11 5 358 350 342 335 330 327 323
84 91 109 108 118 118 112 106 94 83 81 87 85 81 77 76 99 100 82 77 54 25 16 12 348 333 333 348 359 2 358 355 351 346 343 339 333 328
95 87 103 117 123 123 122 121 115 108 104 90 74 65 66 62 58 66 82 83 68 31 8 1 359 355 353 346 349 1 0 352 349 348 346 344 343 341
127 115 109 120 118 117 119 122 131 125 108 100 89 78 69 62 56 54 55 71 75 52 357 352 7 11 2 332 336 351 358 357 355 354 353 350 351 354
142 137 129 123 117 114 110 119 120 114 108 100 93 83 74 65 53 53 58 64 66 59 12 17 35 19 14 12 351 338 344 0 1 357 357 355 355 356
140 141 132 121 110 105 113 120 118 114 111 107 103 90 74 60 63 64 53 60 65 55 41 34 43 45 44 26 359 346 338 347 357 359 2 12 11 5
126 126 117 108 101 104 104 102 103 112 117 116 111 100 92 83 66 57 55 43 49 37 33 35 33 43 46 32 21 9 359 351 351 356 1 18 22 19
135 122 118 119 116 114 107 105 109 115 110 115 121 116 105 92 76 63 66 64 59 33 14 7 14 44 53 32 24 16 5 3 359 356 2 21 26 19
139 144 146 147 147 146 140 131 130 131 129 132 130 125 120 113 104 88 80 76 67 42 22 2 358 26 49 71 37 9 9 4 357 3 8 14 19 16
146 158 160 162 160 159 158 153 153 149 144 145 141 139 133 127 123 117 108 97 78 53 30 13 15 25 27 23 23 30 3 353 357 8 11 8 4 358
166 167 170 170 168 168 169 163 153 150 153 158 155 153 151 145 142 143 143 137 115 76 42 33 23 10 4 354 337 343 4 356 354 360 359 354 354 338
174 173 173 172 174 174 175 171 166 166 168 169 172 170 167 163 163 165 163 156 154 140 42 12 345 320 278 278 333 2 8 11 2 350 347 353 0 6
177 176 177 177 176 176 175 173 172 174 177 183 184 183 182 183 183 184 184 180 183 187 207 350 354 6 41 25 14 354 350 359 12 28 30 16 2 7
178 177 176 178 177 174 174 178 180 184 189 193 193 192 190 193 197 194 194 194 189 190 199 199 43 46 40 15 0 355 355 356 356 5 26 17 24 31